Knoxville, IA

5:51 PM CDT on August 25, 2016 (GMT -0500)
Knoxville Municipal

Weather History for KOXV - April, 2014

Change the Weather History Date:

Wednesday, April 30, 2014

  Actual Average Record
Temperature  
Mean Temperature 40 °F -  
Max Temperature 44 °F 69 °F 88 °F (1965)
Min Temperature 37 °F 45 °F 31 °F (1960)
Degree Days  
Heating Degree Days 24    
Moisture  
Dew Point 37 °F    
Average Humidity 84    
Maximum Humidity 93    
Minimum Humidity 71    
Precipitation  
Precipitation 0.09 in - - ()
Sea Level Pressure  
Sea Level Pressure 29.78 in    
Wind  
Wind Speed 14 mph (WNW)    
Max Wind Speed 21 mph    
Max Gust Speed 30 mph    
Visibility 9 miles    
Events Rain    
Averages and records for this station are not official NWS values.
T = Trace of Precipitation, MM = Missing Value Source: NWS Daily Summary

Daily Weather History Graph

Daily Weather History Graph

Search for Another Location

Airport or City:

Trip Planner

Search our weather history database for the weather conditions in past years. The results will help you decide how hot, cold, wet, or windy it might be!

Date:

Astronomy

Apr. 30, 2014 Rise Set
Actual Time 6:11 AM CDT 8:08 PM CDT
Civil Twilight 5:41 AM CDT 8:38 PM CDT
Nautical Twilight 5:04 AM CDT 9:15 PM CDT
Astronomical Twilight 4:25 AM CDT 9:55 PM CDT
Moon 7:12 AM CDT (4/30) 9:48 PM CDT (4/30)
Length of Visible Light 14h 57m
Length of Day
13h 57m
New Moon, 2% of the Moon is Illuminated
Apr 30
New Moon
May 6
First Quarter
May 14
Full
May 21
Last Quarter
May 28
New

Hourly Weather History & Observations

Time (CDT) Temp. Windchill Dew Point Humidity Pressure Visibility Wind Dir Wind Speed Gust Speed Precip Events Conditions
12:15 AM 39.2 °F 30.5 °F 35.6 °F 87% 29.73 in 10.0 mi NW 16.1 mph - N/A   Overcast
12:35 AM 39.2 °F 31.2 °F 33.8 °F 81% 29.73 in 10.0 mi NW 13.8 mph - N/A   Overcast
12:55 AM 39.2 °F 30.8 °F 33.8 °F 81% 29.73 in 10.0 mi NW 15.0 mph - N/A   Overcast
1:15 AM 39.2 °F 31.2 °F 33.8 °F 81% 29.73 in 10.0 mi NW 13.8 mph 20.7 mph N/A   Overcast
1:35 AM 39.2 °F 31.6 °F 33.8 °F 81% 29.73 in 10.0 mi NW 12.7 mph - N/A   Overcast
1:55 AM 39.2 °F 31.2 °F 33.8 °F 81% 29.73 in 10.0 mi NW 13.8 mph - N/A   Overcast
2:15 AM 37.4 °F 30.8 °F 33.8 °F 87% 29.73 in 10.0 mi NW 9.2 mph - N/A   Overcast
2:35 AM 39.2 °F 34.2 °F 33.8 °F 81% 29.73 in 10.0 mi WNW 6.9 mph - N/A   Overcast
2:55 AM 39.2 °F 33.6 °F 33.8 °F 81% 29.74 in 10.0 mi NW 8.1 mph 13.8 mph N/A   Overcast
3:15 AM 39.2 °F 32.5 °F 33.8 °F 81% 29.74 in 10.0 mi NNW 10.4 mph - N/A   Overcast
3:35 AM 39.2 °F 33.0 °F 33.8 °F 81% 29.75 in 10.0 mi NNW 9.2 mph - N/A   Overcast
3:55 AM 39.2 °F 34.2 °F 33.8 °F 81% 29.75 in 10.0 mi NW 6.9 mph - N/A   Overcast
4:15 AM 39.2 °F 31.6 °F 33.8 °F 81% 29.75 in 10.0 mi NW 12.7 mph - N/A   Overcast
4:35 AM 37.4 °F 30.8 °F 33.8 °F 87% 29.75 in 10.0 mi WNW 9.2 mph - N/A   Overcast
4:55 AM 37.4 °F 29.8 °F 33.8 °F 87% 29.75 in 10.0 mi WNW 11.5 mph - N/A   Overcast
5:15 AM 37.4 °F 29.3 °F 33.8 °F 87% 29.75 in 10.0 mi WNW 12.7 mph - N/A   Overcast
5:35 AM 37.4 °F 29.3 °F 33.8 °F 87% 29.75 in 10.0 mi West 12.7 mph - N/A   Overcast
5:55 AM 39.2 °F 31.6 °F 33.8 °F 81% 29.75 in 10.0 mi West 12.7 mph - N/A   Overcast
6:15 AM 39.2 °F 32.5 °F 35.6 °F 87% 29.75 in 10.0 mi West 10.4 mph - N/A   Overcast
6:35 AM 39.2 °F 31.2 °F 35.6 °F 87% 29.75 in 10.0 mi West 13.8 mph - N/A   Overcast
6:55 AM 39.2 °F 30.5 °F 35.6 °F 87% 29.75 in 10.0 mi WNW 16.1 mph - N/A   Overcast
7:15 AM 39.2 °F 30.8 °F 35.6 °F 87% 29.76 in 10.0 mi WNW 15.0 mph 20.7 mph N/A   Overcast
7:35 AM 41.0 °F 33.9 °F 35.6 °F 81% 29.76 in 10.0 mi WNW 12.7 mph - N/A   Overcast
7:55 AM 41.0 °F 33.9 °F 35.6 °F 81% 29.76 in 10.0 mi WNW 12.7 mph 19.6 mph N/A   Overcast
8:15 AM 41.0 °F 33.1 °F 35.6 °F 81% 29.76 in 10.0 mi WNW 15.0 mph - N/A   Overcast
8:35 AM 41.0 °F 33.5 °F 35.6 °F 81% 29.77 in 10.0 mi WNW 13.8 mph 21.9 mph N/A   Overcast
8:55 AM 41.0 °F 33.1 °F 35.6 °F 81% 29.77 in 10.0 mi WNW 15.0 mph - N/A   Overcast
9:15 AM 41.0 °F 33.5 °F 37.4 °F 87% 29.77 in 2.0 mi WNW 13.8 mph - N/A   Mostly Cloudy
9:35 AM 41.0 °F 33.1 °F 37.4 °F 87% 29.77 in 10.0 mi WNW 15.0 mph 20.7 mph N/A   Overcast
9:55 AM 42.8 °F 35.4 °F 37.4 °F 81% 29.78 in 10.0 mi WNW 15.0 mph - N/A   Overcast
10:15 AM 42.8 °F 35.8 °F 35.6 °F 76% 29.77 in 10.0 mi WNW 13.8 mph - N/A   Overcast
10:35 AM 42.8 °F 35.4 °F 35.6 °F 76% 29.77 in 10.0 mi NW 15.0 mph - N/A   Overcast
10:55 AM 44.6 °F 36.4 °F 35.6 °F 71% 29.78 in 10.0 mi WNW 20.7 mph - N/A   Unknown
11:15 AM 44.6 °F 38.8 °F 37.4 °F 76% 29.78 in 10.0 mi NW 11.5 mph 20.7 mph N/A   Overcast
11:35 AM 44.6 °F 36.4 °F 37.4 °F 76% 29.78 in 10.0 mi NW 20.7 mph 26.5 mph N/A   Overcast
11:55 AM 44.6 °F 36.6 °F 35.6 °F 71% 29.78 in 10.0 mi NW 19.6 mph 25.3 mph N/A   Mostly Cloudy
12:15 PM 44.6 °F 37.2 °F 37.4 °F 76% 29.79 in 10.0 mi WNW 17.3 mph - N/A   Overcast
12:35 PM 44.6 °F 36.4 °F 37.4 °F 76% 29.79 in 10.0 mi WNW 20.7 mph 27.6 mph N/A   Mostly Cloudy
12:55 PM 42.8 °F 36.2 °F 37.4 °F 81% 29.79 in 8.0 mi WNW 12.7 mph 25.3 mph N/A Rain Light Rain
1:15 PM 42.8 °F 34.3 °F 37.4 °F 81% 29.80 in 3.0 mi NW 19.6 mph 29.9 mph N/A Rain Rain
1:35 PM 44.6 °F 38.1 °F 39.2 °F 81% 29.80 in 10.0 mi WNW 13.8 mph 19.6 mph N/A   Scattered Clouds
1:55 PM 44.6 °F 37.4 °F 39.2 °F 81% 29.80 in 10.0 mi WNW 16.1 mph - 0.01 in   Mostly Cloudy
2:15 PM 44.6 °F 37.4 °F 41.0 °F 87% 29.81 in 9.0 mi West 16.1 mph 23.0 mph N/A Rain Light Rain
2:55 PM 42.8 °F 34.3 °F 37.4 °F 81% 29.82 in 8.0 mi WNW 19.6 mph 26.5 mph 0.01 in Rain Light Rain
3:15 PM 42.8 °F 35.4 °F 39.2 °F 87% 29.82 in 8.0 mi WNW 15.0 mph - N/A Rain Light Rain
3:35 PM 42.8 °F 35.1 °F 39.2 °F 87% 29.82 in 9.0 mi WNW 16.1 mph 23.0 mph N/A Rain Light Rain
3:55 PM 42.8 °F 35.4 °F 39.2 °F 87% 29.82 in 8.0 mi West 15.0 mph - 0.02 in   Mostly Cloudy
4:15 PM 42.8 °F 35.4 °F 39.2 °F 87% 29.81 in 9.0 mi West 15.0 mph - N/A   Mostly Cloudy
4:35 PM 42.8 °F 36.6 °F 39.2 °F 87% 29.81 in 8.0 mi West 11.5 mph 18.4 mph N/A   Mostly Cloudy
4:55 PM 42.8 °F 35.1 °F 39.2 °F 87% 29.81 in 9.0 mi West 16.1 mph - N/A   Mostly Cloudy
5:15 PM 42.8 °F 35.1 °F 39.2 °F 87% 29.81 in 10.0 mi West 16.1 mph - N/A   Mostly Cloudy
5:35 PM 42.8 °F 34.8 °F 39.2 °F 87% 29.80 in 9.0 mi WNW 17.3 mph - N/A Rain Light Rain
5:55 PM 42.8 °F 35.4 °F 39.2 °F 87% 29.81 in 6.0 mi WNW 15.0 mph - 0.01 in Rain Light Rain
6:15 PM 42.8 °F 35.1 °F 39.2 °F 87% 29.81 in 6.0 mi WNW 16.1 mph 24.2 mph N/A Rain Light Rain
6:35 PM 42.8 °F 35.4 °F 39.2 °F 87% 29.81 in 7.0 mi WNW 15.0 mph - N/A Rain Light Rain
7:15 PM 41.0 °F 34.7 °F 39.2 °F 93% 29.81 in 2.5 mi WNW 10.4 mph - N/A Rain Light Rain
7:35 PM 42.8 °F 36.6 °F 39.2 °F 87% 29.81 in 4.0 mi WNW 11.5 mph - N/A Rain Light Rain
7:55 PM 41.0 °F 33.5 °F 39.2 °F 93% 29.82 in 5.0 mi NW 13.8 mph - 0.03 in Rain Light Rain
8:15 PM 41.0 °F 34.3 °F 39.2 °F 93% 29.82 in 7.0 mi WNW 11.5 mph 18.4 mph N/A   Mostly Cloudy
8:35 PM 41.0 °F 33.9 °F 39.2 °F 93% 29.82 in 8.0 mi WNW 12.7 mph - N/A   Overcast
8:55 PM 41.0 °F 34.7 °F 39.2 °F 93% 29.82 in 9.0 mi West 10.4 mph - 0.01 in   Overcast
9:15 PM 41.0 °F 34.7 °F 39.2 °F 93% 29.82 in 9.0 mi West 10.4 mph - N/A   Overcast
9:35 PM 41.0 °F 34.7 °F 39.2 °F 93% 29.82 in 10.0 mi West 10.4 mph - N/A   Overcast
10:15 PM 42.8 °F 37.0 °F 39.2 °F 87% 29.82 in 8.0 mi West 10.4 mph - N/A   Overcast
10:35 PM 42.8 °F 35.8 °F 39.2 °F 87% 29.82 in 10.0 mi West 13.8 mph 21.9 mph N/A   Overcast
10:55 PM 42.8 °F 35.4 °F 39.2 °F 87% 29.81 in 10.0 mi West 15.0 mph - N/A   Overcast
11:15 PM 42.8 °F 35.4 °F 39.2 °F 87% 29.81 in 10.0 mi West 15.0 mph - N/A   Overcast
11:35 PM 42.8 °F 35.1 °F 39.2 °F 87% 29.81 in 8.0 mi West 16.1 mph - N/A   Overcast